EW2160 Weather Reports


Display with metric or nautical units.
time (UTC)temp
F
wind
direction
speed
MPH
gust
MPH
rain 1hr
in
rain 24hr
in
rain mn
in
humidity
%
barometer
mb
20240304122016 66 0.0 0.0 0.00 0.00 0.00 73 1023.7
20240304121117 66 0.0 0.0 0.00 0.00 0.00 73 1023.6
20240304120016 66 0.0 0.0 0.00 0.00 0.00 73 1023.6
20240304115036 66 0.0 0.0 0.00 0.00 0.00 72 1023.6
20240304114016 66 0.0 0.0 0.00 0.00 0.00 72 1023.6
20240304113016 66 0.0 0.0 0.00 0.00 0.00 73 1023.7
20240304112016 66 0.0 0.0 0.00 0.00 0.00 72 1023.7
20240304111015 66 0.0 0.0 0.00 0.00 0.00 72 1023.7
20240304110056 67 0.0 0.0 0.00 0.00 0.00 72 1023.7
20240304105017 67 0.0 0.0 0.00 0.00 0.00 72 1023.7
20240304104018 67 0.0 0.0 0.00 0.00 0.00 72 1023.7
20240304103018 67 0.0 0.0 0.00 0.00 0.00 71 1023.7
20240304102038 67 0.0 0.0 0.00 0.00 0.00 71 1023.6
20240304101018 67 0.0 0.0 0.00 0.00 0.00 70 1023.6
20240304100018 68 0.0 0.0 0.00 0.00 0.00 70 1023.5
20240304095018 68 0.0 0.0 0.00 0.00 0.00 70 1023.5
20240304094018 68 0.0 0.0 0.00 0.00 0.00 70 1023.4
20240304093019 68 0.0 0.0 0.00 0.00 0.00 70 1023.2
20240304092017 68 0.0 0.0 0.00 0.00 0.00 70 1023.0
20240304091017 69 0.0 0.0 0.00 0.00 0.00 70 1023.0
20240304090019 69 0.0 0.0 0.00 0.00 0.00 70 1022.9
20240304085017 69 0.0 0.0 0.00 0.00 0.00 70 1022.8
20240304084017 69 0.0 0.0 0.00 0.00 0.00 71 1022.8
20240304083021 69 0.0 0.0 0.00 0.00 0.00 71 1022.8
20240304082017 69 0.0 0.0 0.00 0.00 0.00 71 1022.7
20240304081019 70 0.0 0.0 0.00 0.00 0.00 70 1022.6
20240304080017 70 0.0 0.0 0.00 0.00 0.00 71 1022.4
20240304075019 70 0.0 0.0 0.00 0.00 0.00 70 1022.3
20240304074017 70 0.0 0.0 0.00 0.00 0.00 71 1022.2
20240304073017 70 0.0 0.0 0.00 0.00 0.00 70 1022.1
20240304072017 70 0.0 0.0 0.00 0.00 0.00 70 1022.0
20240304071017 71 0.0 0.0 0.00 0.00 0.00 71 1022.0
20240304070017 71 0.0 0.0 0.00 0.00 0.00 71 1021.9
20240304065019 71 0.0 0.0 0.00 0.00 0.00 71 1021.9
20240304064017 71 0.0 0.0 0.00 0.00 0.00 70 1021.9
20240304063017 71 0.0 0.0 0.00 0.00 0.00 70 1021.9
20240304062017 71 0.0 0.0 0.00 0.00 0.00 70 1021.8
20240304061017 71 0.0 0.0 0.00 0.00 0.00 71 1021.8
20240304060018 72 0.0 0.0 0.00 0.00 0.00 70 1021.8
20240304055017 72 0.0 0.0 0.00 0.00 0.00 68 1021.8
20240304054017 72 0.0 0.0 0.00 0.00 0.00 67 1021.7
20240304053017 72 0.0 0.0 0.00 0.00 0.00 67 1021.7
20240304052017 72 0.0 0.0 0.00 0.00 0.00 67 1021.8
20240304051038 72 0.0 0.0 0.00 0.00 0.00 66 1021.8
20240304050018 73 0.0 0.0 0.00 0.00 0.00 65 1021.9
20240304045019 73 0.0 0.0 0.00 0.00 0.00 66 1021.9
20240304044017 72 0.0 0.0 0.00 0.00 0.00 68 1022.1
20240304043017 71 0.0 0.0 0.00 0.00 0.00 69 1022.1
20240304042017 71 0.0 0.0 0.00 0.00 0.00 68 1022.2
20240304041017 71 0.0 0.0 0.00 0.00 0.00 68 1022.1
20240304040017 71 0.0 0.0 0.00 0.00 0.00 68 1022.0
20240304035016 71 0.0 0.0 0.00 0.00 0.00 69 1022.0
20240304034017 71 0.0 0.0 0.00 0.00 0.00 68 1022.0
20240304033017 71 0.0 0.0 0.00 0.00 0.00 68 1022.1
20240304032017 71 0.0 0.0 0.00 0.00 0.00 68 1022.1
20240304031017 71 0.0 0.0 0.00 0.00 0.00 68 1022.1
20240304030018 72 0.0 0.0 0.00 0.00 0.00 66 1022.0
20240304025016 72 0.0 0.0 0.00 0.00 0.00 66 1021.9
20240304024018 72 0.0 0.0 0.00 0.00 0.00 64 1022.1
20240304023016 72 0.0 0.0 0.00 0.00 0.00 64 1022.1
20240304022017 73 0.0 0.0 0.00 0.00 0.00 64 1022.1
20240304021016 72 0.0 0.0 0.00 0.00 0.00 65 1022.1
20240304020016 72 0.0 0.0 0.00 0.00 0.00 65 1022.2
20240304015016 72 0.0 0.0 0.00 0.00 0.00 65 1022.2
20240304014017 72 0.0 0.0 0.00 0.00 0.00 68 1022.2
20240304013018 72 0.0 0.0 0.00 0.00 0.00 69 1022.2
20240304012016 72 0.0 0.0 0.00 0.00 0.00 69 1022.2
20240304011017 72 0.0 0.0 0.00 0.00 0.00 69 1022.2
20240304010016 71 0.0 0.0 0.00 0.00 0.00 69 1022.3
20240304005016 71 0.0 0.0 0.00 0.00 0.00 70 1022.4
20240304004016 71 0.0 0.0 0.00 0.00 0.00 69 1022.3
20240304003018 71 0.0 0.0 0.00 0.00 0.00 69 1022.4
20240304002017 71 0.0 0.0 0.00 0.00 0.00 69 1022.3
20240304001016 71 0.0 0.0 0.00 0.00 0.00 68 1022.3
20240304000017 71 0.0 0.0 0.00 0.00 0.00 68 1022.2
20240303235016 71 0.0 0.0 0.00 0.00 0.00 69 1022.2
20240303234036 71 0.0 0.0 0.00 0.00 0.00 69 1022.2
20240303233017 71 0.0 0.0 0.00 0.00 0.00 65 1022.1
20240303232016 71 0.0 0.0 0.00 0.00 0.00 66 1022.0
20240303231016 70 0.0 0.0 0.00 0.00 0.00 66 1022.1
20240303230017 70 0.0 0.0 0.00 0.00 0.00 67 1021.9
20240303225016 70 0.0 0.0 0.00 0.00 0.00 68 1021.7
20240303224038 70 0.0 0.0 0.00 0.00 0.00 69 1021.7
20240303223016 70 0.0 0.0 0.00 0.00 0.00 69 1021.5
20240303222017 69 0.0 0.0 0.00 0.00 0.00 70 1021.4
20240303221016 69 0.0 0.0 0.00 0.00 0.00 70 1021.4
20240303220016 69 0.0 0.0 0.00 0.00 0.00 70 1021.2
20240303215016 69 0.0 0.0 0.00 0.00 0.00 70 1021.1
20240303214016 69 0.0 0.0 0.00 0.00 0.00 69 1021.0
20240303213016 69 0.0 0.0 0.00 0.00 0.00 70 1020.9
20240303212016 69 0.0 0.0 0.00 0.00 0.00 71 1020.8
20240303211016 69 0.0 0.0 0.00 0.00 0.00 70 1020.6
20240303210018 68 0.0 0.0 0.00 0.00 0.00 71 1020.4
20240303205038 68 0.0 0.0 0.00 0.00 0.00 70 1020.3
20240303204038 68 0.0 0.0 0.00 0.00 0.00 71 1020.1
20240303203017 68 0.0 0.0 0.00 0.00 0.00 71 1020.0
20240303202018 68 0.0 0.0 0.00 0.00 0.00 71 1019.7
20240303201018 68 0.0 0.0 0.00 0.00 0.00 71 1019.7
20240303200019 68 0.0 0.0 0.00 0.00 0.00 71 1019.6
20240303195017 68 0.0 0.0 0.00 0.00 0.00 71 1019.4
20240303194019 68 0.0 0.0 0.00 0.00 0.00 73 1019.2
20240303193017 69 0.0 0.0 0.00 0.00 0.00 73 1019.1
20240303192019 69 0.0 0.0 0.00 0.00 0.00 74 1018.9
20240303191017 69 0.0 0.0 0.00 0.00 0.00 74 1018.9
20240303190017 69 0.0 0.0 0.00 0.00 0.00 74 1018.8
20240303185038 69 0.0 0.0 0.00 0.00 0.00 75 1018.7
20240303184019 69 0.0 0.0 0.00 0.00 0.00 76 1018.5
20240303183017 69 0.0 0.0 0.00 0.00 0.00 77 1018.3
20240303182017 69 0.0 0.0 0.00 0.00 0.00 76 1018.2
20240303181039 69 0.0 0.0 0.00 0.00 0.00 77 1018.0
20240303180017 70 0.0 0.0 0.00 0.00 0.00 76 1017.9
20240303175018 70 0.0 0.0 0.00 0.00 0.00 77 1017.7
20240303174017 70 0.0 0.0 0.00 0.00 0.00 77 1017.7
20240303173017 70 0.0 0.0 0.00 0.00 0.00 78 1017.6
20240303172017 70 0.0 0.0 0.00 0.00 0.00 78 1017.5
20240303171018 70 0.0 0.0 0.00 0.00 0.00 79 1017.6
20240303170017 70 0.0 0.0 0.00 0.00 0.00 79 1017.5
20240303165018 70 0.0 0.0 0.00 0.00 0.00 81 1017.4
20240303164010 70 0.0 0.0 0.00 0.00 0.00 81 1017.3
20240303163019 71 0.0 0.0 0.00 0.00 0.00 81 1017.3
20240303162016 71 0.0 0.0 0.00 0.00 0.00 80 1017.1
20240303161017 71 0.0 0.0 0.00 0.00 0.00 77 1017.0
20240303160016 71 0.0 0.0 0.00 0.00 0.00 76 1017.0
20240303155016 71 0.0 0.0 0.00 0.00 0.00 76 1017.0
20240303154016 71 0.0 0.0 0.00 0.00 0.00 77 1017.0
20240303153038 71 0.0 0.0 0.00 0.00 0.00 76 1017.1
20240303152016 71 0.0 0.0 0.00 0.00 0.00 77 1017.2
20240303151017 71 0.0 0.0 0.00 0.00 0.00 77 1017.3
20240303150016 71 0.0 0.0 0.00 0.00 0.00 77 1017.2
20240303145016 71 0.0 0.0 0.00 0.00 0.00 78 1017.0
20240303144016 71 0.0 0.0 0.00 0.00 0.00 78 1016.9
20240303143015 71 0.0 0.0 0.00 0.00 0.00 78 1016.8
20240303142017 71 0.0 0.0 0.00 0.00 0.00 78 1016.8
20240303141017 71 0.0 0.0 0.00 0.00 0.00 79 1016.8
20240303140019 71 0.0 0.0 0.00 0.00 0.00 80 1016.9
20240303135038 71 0.0 0.0 0.00 0.00 0.00 80 1016.9
20240303134038 72 0.0 0.0 0.00 0.00 0.00 81 1016.9
20240303133018 72 0.0 0.0 0.00 0.00 0.00 82 1016.9
20240303132018 72 0.0 0.0 0.00 0.00 0.00 83 1016.7
20240303131017 72 0.0 0.0 0.00 0.00 0.00 83 1016.5
20240303130019 73 0.0 0.0 0.00 0.00 0.00 85 1016.3
20240303125016 73 0.0 0.0 0.00 0.00 0.00 85 1016.1
20240303124036 73 0.0 0.0 0.00 0.00 0.00 85 1015.9
20240303123018 73 0.0 0.0 0.00 0.00 0.00 85 1015.7